| time (UTC) | temp F | wind direction | speed knots | gust knots | rain 1hr in | rain 24hr in | rain mn in | humidity % | barometer mb |
| 20260906180916 | 67 | 0.0 | 0.9 | 0.42 | 0.74 | 0.74 | 97 | 1015.4 | |
| 20260906180416 | 67 | 58 | 2.6 | 3.5 | 0.48 | 0.72 | 0.72 | 97 | 1015.0 |
| 20260906180036 | 67 | 350 | 2.6 | 3.5 | 0.47 | 0.69 | 0.69 | 97 | 1015.4 |
| 20260906175415 | 67 | 0.0 | 0.9 | 0.47 | 0.67 | 0.67 | 97 | 1015.6 | |
| 20260906174916 | 67 | 350 | 2.6 | 3.5 | 0.47 | 0.66 | 0.66 | 97 | 1015.5 |
| 20260906174416 | 66 | 328 | 1.7 | 2.6 | 0.47 | 0.65 | 0.65 | 97 | 1015.6 |
| 20260906173915 | 66 | 350 | 2.6 | 4.3 | 0.45 | 0.63 | 0.63 | 97 | 1015.4 |
| 20260906173415 | 66 | 13 | 2.6 | 4.3 | 0.45 | 0.62 | 0.62 | 97 | 1015.2 |
| 20260906172936 | 66 | 35 | 1.7 | 2.6 | 0.40 | 0.56 | 0.56 | 97 | 1015.3 |
| 20260906172416 | 66 | 305 | 0.9 | 1.7 | 0.36 | 0.52 | 0.52 | 97 | 1015.6 |
| 20260906171936 | 66 | 58 | 1.7 | 2.6 | 0.31 | 0.45 | 0.45 | 97 | 1015.4 |
| 20260906171415 | 66 | 283 | 1.7 | 1.7 | 0.24 | 0.36 | 0.36 | 97 | 1015.8 |
| 20260906170915 | 66 | 283 | 1.7 | 3.5 | 0.22 | 0.32 | 0.32 | 97 | 1015.6 |
| 20260906170416 | 66 | 283 | 0.9 | 1.7 | 0.15 | 0.24 | 0.24 | 97 | 1015.1 |
| 20260906165916 | 66 | 0.0 | 0.0 | 0.13 | 0.22 | 0.22 | 96 | 1014.9 | |
| 20260906165415 | 66 | 35 | 0.9 | 1.7 | 0.13 | 0.20 | 0.20 | 96 | 1014.6 |
| 20260906164916 | 66 | 350 | 3.5 | 4.3 | 0.13 | 0.19 | 0.19 | 96 | 1014.6 |
| 20260906164415 | 66 | 35 | 0.9 | 1.7 | 0.13 | 0.18 | 0.18 | 96 | 1014.5 |
| 20260906163916 | 66 | 58 | 0.9 | 1.7 | 0.13 | 0.18 | 0.18 | 96 | 1014.5 |
| 20260906163415 | 66 | 13 | 1.7 | 2.6 | 0.12 | 0.17 | 0.17 | 96 | 1014.5 |
| 20260906162915 | 66 | 0.0 | 0.0 | 0.11 | 0.16 | 0.16 | 95 | 1014.6 | |
| 20260906162415 | 66 | 0.0 | 0.9 | 0.11 | 0.16 | 0.16 | 95 | 1014.7 | |
| 20260906161916 | 66 | 0.0 | 0.0 | 0.09 | 0.14 | 0.14 | 94 | 1014.7 | |
| 20260906161415 | 67 | 0.0 | 0.9 | 0.07 | 0.12 | 0.12 | 92 | 1014.8 | |
| 20260906160915 | 67 | 283 | 0.9 | 2.6 | 0.05 | 0.10 | 0.10 | 90 | 1014.9 |
| 20260906160416 | 68 | 283 | 2.6 | 3.5 | 0.04 | 0.09 | 0.09 | 88 | 1014.7 |
| 20260906155915 | 68 | 0.0 | 1.7 | 0.04 | 0.09 | 0.09 | 88 | 1014.5 | |
| 20260906155416 | 68 | 283 | 0.9 | 1.7 | 0.02 | 0.07 | 0.07 | 87 | 1014.3 |
| 20260906154915 | 68 | 238 | 0.9 | 1.7 | 0.01 | 0.06 | 0.06 | 87 | 1014.1 |
| 20260906154455 | 68 | 260 | 1.7 | 2.6 | 0.00 | 0.05 | 0.05 | 87 | 1013.9 |
| 20260906153917 | 68 | 260 | 1.7 | 1.7 | 0.00 | 0.05 | 0.05 | 87 | 1013.7 |
| 20260906153415 | 68 | 0.0 | 1.7 | 0.00 | 0.05 | 0.05 | 87 | 1013.6 | |
| 20260906152915 | 68 | 0.0 | 0.9 | 0.00 | 0.05 | 0.05 | 87 | 1013.5 | |
| 20260906152435 | 68 | 0.0 | 0.9 | 0.01 | 0.05 | 0.05 | 87 | 1013.4 | |
| 20260906151916 | 68 | 0.0 | 0.9 | 0.01 | 0.05 | 0.05 | 87 | 1013.4 | |
| 20260906151416 | 67 | 0.0 | 0.9 | 0.01 | 0.05 | 0.05 | 87 | 1013.5 | |
| 20260906150935 | 67 | 260 | 1.7 | 2.6 | 0.01 | 0.05 | 0.05 | 87 | 1013.4 |
| 20260906150415 | 67 | 283 | 0.9 | 1.7 | 0.01 | 0.05 | 0.05 | 87 | 1013.3 |
| 20260906145916 | 67 | 283 | 1.7 | 2.6 | 0.01 | 0.05 | 0.05 | 86 | 1012.9 |
| 20260906145415 | 67 | 350 | 1.7 | 2.6 | 0.02 | 0.05 | 0.05 | 86 | 1012.9 |
| 20260906144915 | 67 | 350 | 1.7 | 2.6 | 0.02 | 0.05 | 0.05 | 86 | 1013.1 |
| 20260906144535 | 66 | 350 | 0.9 | 2.6 | 0.02 | 0.05 | 0.05 | 85 | 1013.1 |
| 20260906143915 | 67 | 0.0 | 0.9 | 0.03 | 0.05 | 0.05 | 85 | 1013.1 | |
| 20260906143415 | 67 | 0.0 | 0.9 | 0.03 | 0.05 | 0.05 | 85 | 1013.2 | |
| 20260906142915 | 67 | 0.0 | 0.0 | 0.03 | 0.05 | 0.05 | 84 | 1013.6 | |
| 20260906142436 | 67 | 305 | 1.7 | 2.6 | 0.02 | 0.04 | 0.04 | 84 | 1013.7 |
| 20260906141935 | 68 | 328 | 2.6 | 4.3 | 0.02 | 0.04 | 0.04 | 85 | 1013.6 |
| 20260906141415 | 68 | 0.0 | 0.0 | 0.02 | 0.04 | 0.04 | 87 | 1013.4 | |
| 20260906140915 | 68 | 0.0 | 0.9 | 0.02 | 0.04 | 0.04 | 87 | 1013.4 | |
| 20260906140415 | 68 | 328 | 0.9 | 1.7 | 0.02 | 0.04 | 0.04 | 86 | 1013.1 |
| 20260906135915 | 69 | 350 | 1.7 | 2.6 | 0.02 | 0.04 | 0.04 | 86 | 1012.9 |
| 20260906135415 | 69 | 350 | 2.6 | 4.3 | 0.01 | 0.03 | 0.03 | 85 | 1012.8 |
| 20260906134935 | 69 | 13 | 2.6 | 5.2 | 0.01 | 0.03 | 0.03 | 84 | 1012.9 |
| 20260906134435 | 70 | 328 | 4.3 | 6.1 | 0.01 | 0.03 | 0.03 | 83 | 1013.0 |
| 20260906133935 | 70 | 350 | 4.3 | 6.1 | 0.00 | 0.02 | 0.02 | 82 | 1013.0 |
| 20260906133435 | 69 | 350 | 3.5 | 5.2 | 0.00 | 0.02 | 0.02 | 81 | 1013.0 |
| 20260906132935 | 69 | 328 | 2.6 | 3.5 | 0.00 | 0.02 | 0.02 | 80 | 1013.1 |
| 20260906132415 | 70 | 350 | 2.6 | 3.5 | 0.00 | 0.02 | 0.02 | 80 | 1013.2 |
| 20260906131915 | 70 | 328 | 0.9 | 1.7 | 0.01 | 0.02 | 0.02 | 79 | 1013.1 |
| 20260906131415 | 70 | 328 | 0.9 | 1.7 | 0.01 | 0.02 | 0.02 | 78 | 1013.1 |
| 20260906130915 | 70 | 350 | 0.9 | 1.7 | 0.01 | 0.02 | 0.02 | 78 | 1013.0 |
| 20260906130415 | 70 | 328 | 0.9 | 1.7 | 0.02 | 0.02 | 0.02 | 78 | 1013.0 |
| 20260906125915 | 70 | 328 | 2.6 | 3.5 | 0.02 | 0.02 | 0.02 | 78 | 1012.9 |
| 20260906125415 | 70 | 328 | 1.7 | 2.6 | 0.02 | 0.02 | 0.02 | 81 | 1012.9 |
| 20260906124915 | 70 | 350 | 1.7 | 3.5 | 0.02 | 0.02 | 0.02 | 81 | 1012.6 |
| 20260906124415 | 71 | 305 | 1.7 | 2.6 | 0.02 | 0.02 | 0.02 | 85 | 1012.8 |
| 20260906123915 | 71 | 283 | 1.7 | 2.6 | 0.02 | 0.02 | 0.02 | 84 | 1012.8 |
| 20260906123415 | 71 | 283 | 1.7 | 2.6 | 0.02 | 0.02 | 0.02 | 83 | 1012.6 |
| 20260906122915 | 71 | 283 | 2.6 | 2.6 | 0.02 | 0.02 | 0.02 | 81 | 1012.3 |
| 20260906122415 | 71 | 305 | 1.7 | 2.6 | 0.02 | 0.02 | 0.02 | 83 | 1012.2 |
| 20260906121915 | 72 | 305 | 0.9 | 1.7 | 0.01 | 0.01 | 0.01 | 84 | 1012.2 |
| 20260906121417 | 72 | 0.0 | 0.9 | 0.01 | 0.01 | 0.01 | 83 | 1012.0 | |
| 20260906120937 | 72 | 260 | 1.7 | 2.6 | 0.01 | 0.01 | 0.01 | 82 | 1012.3 |
| 20260906120415 | 72 | 260 | 2.6 | 3.5 | 0.00 | 0.00 | 0.00 | 82 | 1012.1 |
| 20260906115917 | 72 | 283 | 1.7 | 1.7 | 0.00 | 0.00 | 0.00 | 81 | 1011.8 |
| 20260906115415 | 72 | 260 | 0.9 | 1.7 | 0.00 | 0.00 | 0.00 | 81 | 1011.8 |
| 20260906114917 | 72 | 0.0 | 0.0 | 0.00 | 0.00 | 0.00 | 80 | 1011.7 | |
| 20260906114415 | 72 | 0.0 | 0.0 | 0.00 | 0.00 | 0.00 | 79 | 1011.5 | |
| 20260906113917 | 72 | 0.0 | 0.0 | 0.00 | 0.00 | 0.00 | 79 | 1011.6 | |
| 20260906113417 | 72 | 0.0 | 0.0 | 0.00 | 0.00 | 0.00 | 79 | 1011.5 | |
| 20260906112917 | 72 | 0.0 | 0.0 | 0.00 | 0.00 | 0.00 | 79 | 1011.6 | |
| 20260906112417 | 72 | 0.0 | 0.0 | 0.00 | 0.00 | 0.00 | 79 | 1011.7 | |
| 20260906111917 | 72 | 0.0 | 0.0 | 0.00 | 0.00 | 0.00 | 79 | 1011.7 | |
| 20260906111417 | 72 | 0.0 | 0.0 | 0.00 | 0.00 | 0.00 | 80 | 1011.7 | |
| 20260906110937 | 72 | 0.0 | 0.0 | 0.00 | 0.00 | 0.00 | 79 | 1011.6 | |
| 20260906110417 | 72 | 0.0 | 0.0 | 0.00 | 0.00 | 0.00 | 79 | 1011.7 | |
| 20260906105917 | 72 | 0.0 | 0.0 | 0.00 | 0.00 | 0.00 | 79 | 1011.6 | |
| 20260906105417 | 72 | 0.0 | 0.0 | 0.00 | 0.00 | 0.00 | 79 | 1011.7 | |
| 20260906104917 | 72 | 0.0 | 0.0 | 0.00 | 0.00 | 0.00 | 79 | 1011.8 | |
| 20260906104417 | 72 | 0.0 | 0.0 | 0.00 | 0.00 | 0.00 | 79 | 1011.7 | |
| 20260906103917 | 72 | 0.0 | 0.0 | 0.00 | 0.00 | 0.00 | 79 | 1011.8 | |
| 20260906103417 | 72 | 0.0 | 0.0 | 0.00 | 0.00 | 0.00 | 80 | 1011.8 | |
| 20260906102917 | 72 | 0.0 | 0.0 | 0.00 | 0.00 | 0.00 | 80 | 1011.7 | |
| 20260906102417 | 72 | 0.0 | 0.0 | 0.00 | 0.00 | 0.00 | 80 | 1011.8 | |
| 20260906101917 | 71 | 0.0 | 0.0 | 0.00 | 0.00 | 0.00 | 81 | 1011.9 | |
| 20260906101417 | 71 | 0.0 | 0.0 | 0.00 | 0.00 | 0.00 | 81 | 1011.8 | |
| 20260906100917 | 71 | 0.0 | 0.0 | 0.00 | 0.00 | 0.00 | 81 | 1011.8 | |
| 20260906100417 | 71 | 0.0 | 0.0 | 0.00 | 0.00 | 0.00 | 81 | 1011.7 | |
| 20260906095917 | 71 | 0.0 | 0.0 | 0.00 | 0.00 | 0.00 | 81 | 1011.7 | |
| 20260906095417 | 71 | 0.0 | 0.0 | 0.00 | 0.00 | 0.00 | 81 | 1011.8 | |
| 20260906094917 | 71 | 0.0 | 0.0 | 0.00 | 0.00 | 0.00 | 81 | 1011.8 | |
| 20260906094437 | 71 | 0.0 | 0.0 | 0.00 | 0.00 | 0.00 | 81 | 1011.8 | |
| 20260906093917 | 71 | 0.0 | 0.0 | 0.00 | 0.00 | 0.00 | 81 | 1011.8 | |
| 20260906093417 | 71 | 0.0 | 0.0 | 0.00 | 0.00 | 0.00 | 82 | 1011.9 | |
| 20260906092917 | 71 | 0.0 | 0.0 | 0.00 | 0.00 | 0.00 | 82 | 1012.0 | |
| 20260906092417 | 71 | 0.0 | 0.0 | 0.00 | 0.00 | 0.00 | 82 | 1011.9 | |
| 20260906091917 | 71 | 0.0 | 0.0 | 0.00 | 0.00 | 0.00 | 82 | 1011.9 | |
| 20260906091437 | 71 | 0.0 | 0.0 | 0.00 | 0.00 | 0.00 | 82 | 1011.8 | |
| 20260906090917 | 71 | 0.0 | 0.0 | 0.00 | 0.00 | 0.00 | 83 | 1011.8 | |
| 20260906090417 | 71 | 0.0 | 0.0 | 0.00 | 0.00 | 0.00 | 83 | 1011.8 | |
| 20260906085917 | 70 | 0.0 | 0.0 | 0.00 | 0.00 | 0.00 | 83 | 1011.9 | |
| 20260906085417 | 70 | 0.0 | 0.0 | 0.00 | 0.00 | 0.00 | 83 | 1011.9 | |
| 20260906084917 | 70 | 0.0 | 0.0 | 0.00 | 0.00 | 0.00 | 83 | 1011.9 | |
| 20260906084417 | 70 | 0.0 | 0.0 | 0.00 | 0.00 | 0.00 | 84 | 1012.1 | |
| 20260906083917 | 70 | 0.0 | 0.0 | 0.00 | 0.00 | 0.00 | 84 | 1012.0 | |
| 20260906083417 | 70 | 0.0 | 0.0 | 0.00 | 0.00 | 0.00 | 84 | 1012.1 | |
| 20260906082917 | 70 | 0.0 | 0.0 | 0.00 | 0.00 | 0.00 | 83 | 1012.1 | |
| 20260906082417 | 70 | 0.0 | 0.0 | 0.00 | 0.00 | 0.00 | 84 | 1012.1 | |
| 20260906081917 | 70 | 0.0 | 0.0 | 0.00 | 0.00 | 0.00 | 84 | 1012.1 | |
| 20260906081417 | 70 | 0.0 | 0.0 | 0.00 | 0.00 | 0.00 | 84 | 1012.2 | |
| 20260906080916 | 70 | 0.0 | 0.0 | 0.00 | 0.00 | 0.00 | 83 | 1012.3 | |
| 20260906080437 | 70 | 0.0 | 0.0 | 0.00 | 0.00 | 0.00 | 83 | 1012.2 | |
| 20260906075917 | 70 | 0.0 | 0.0 | 0.00 | 0.00 | 0.00 | 83 | 1012.1 | |
| 20260906075417 | 70 | 0.0 | 0.0 | 0.00 | 0.00 | 0.00 | 83 | 1012.1 | |
| 20260906074916 | 70 | 0.0 | 0.0 | 0.00 | 0.00 | 0.00 | 83 | 1012.1 | |
| 20260906074417 | 71 | 0.0 | 0.0 | 0.00 | 0.00 | 0.00 | 83 | 1012.1 | |
| 20260906073917 | 71 | 0.0 | 0.0 | 0.00 | 0.00 | 0.00 | 83 | 1012.1 | |
| 20260906073457 | 71 | 0.0 | 0.0 | 0.00 | 0.00 | 0.00 | 83 | 1012.2 | |
| 20260906072917 | 71 | 0.0 | 0.0 | 0.00 | 0.00 | 0.00 | 82 | 1012.1 | |
| 20260906072417 | 71 | 0.0 | 0.0 | 0.00 | 0.00 | 0.00 | 82 | 1012.1 | |
| 20260906071916 | 71 | 0.0 | 0.0 | 0.00 | 0.00 | 0.00 | 82 | 1012.2 | |
| 20260906071416 | 71 | 0.0 | 0.0 | 0.00 | 0.00 | 0.00 | 82 | 1012.2 | |
| 20260906070916 | 71 | 0.0 | 0.0 | 0.00 | 0.00 | 0.00 | 82 | 1012.2 | |
| 20260906070417 | 71 | 0.0 | 0.0 | 0.00 | 0.00 | 0.00 | 82 | 1012.2 | |
| 20260906065955 | 72 | 0.0 | 0.0 | 0.00 | 0.00 | 0.00 | 82 | 1012.1 | |
| 20260906065417 | 72 | 0.0 | 0.0 | 0.00 | 0.00 | 0.00 | 82 | 1012.0 | |
| 20260906065018 | 72 | 305 | 1.7 | 2.6 | 0.00 | 0.00 | 0.00 | 82 | 1011.9 |
| 20260906064417 | 72 | 0.0 | 0.9 | 0.00 | 0.00 | 0.00 | 82 | 1011.9 | |
| 20260906063917 | 72 | 0.0 | 0.0 | 0.00 | 0.00 | 0.00 | 81 | 1012.0 | |
| 20260906063415 | 72 | 0.0 | 0.0 | 0.00 | 0.00 | 0.00 | 81 | 1012.0 | |
| 20260906062917 | 72 | 0.0 | 0.0 | 0.00 | 0.00 | 0.00 | 82 | 1012.1 | |
| 20260906062437 | 72 | 0.0 | 0.0 | 0.00 | 0.00 | 0.00 | 81 | 1012.1 | |
| 20260906061917 | 72 | 0.0 | 0.0 | 0.00 | 0.00 | 0.00 | 81 | 1012.1 | |
| 20260906061417 | 72 | 0.0 | 0.9 | 0.00 | 0.00 | 0.00 | 81 | 1012.1 | |
| 20260906060937 | 72 | 260 | 1.7 | 2.6 | 0.00 | 0.00 | 0.00 | 81 | 1012.1 |
| 20260906060417 | 72 | 0.0 | 0.9 | 0.00 | 0.00 | 0.00 | 80 | 1012.1 | |
| 20260906055917 | 72 | 260 | 0.9 | 2.6 | 0.00 | 0.00 | 0.00 | 79 | 1012.2 |
| 20260906055437 | 72 | 0.0 | 0.9 | 0.00 | 0.00 | 0.00 | 79 | 1012.1 | |
| 20260906054917 | 72 | 283 | 0.9 | 1.7 | 0.00 | 0.00 | 0.00 | 79 | 1012.2 |
| 20260906054417 | 72 | 0.0 | 0.0 | 0.00 | 0.00 | 0.00 | 77 | 1012.3 | |
| 20260906053917 | 73 | 0.0 | 0.0 | 0.00 | 0.00 | 0.00 | 77 | 1012.3 | |
| 20260906053417 | 73 | 238 | 0.9 | 2.6 | 0.00 | 0.00 | 0.00 | 76 | 1012.3 |
| 20260906052917 | 73 | 0.0 | 0.0 | 0.00 | 0.00 | 0.00 | 75 | 1012.3 | |
| 20260906052437 | 73 | 283 | 0.9 | 1.7 | 0.00 | 0.00 | 0.00 | 74 | 1012.4 |
| 20260906051917 | 73 | 260 | 1.7 | 3.5 | 0.00 | 0.00 | 0.00 | 73 | 1012.5 |
| 20260906051417 | 73 | 260 | 0.9 | 0.9 | 0.00 | 0.00 | 0.00 | 73 | 1012.5 |
| 20260906050917 | 73 | 260 | 1.7 | 2.6 | 0.00 | 0.00 | 0.00 | 72 | 1012.5 |
| 20260906050417 | 73 | 283 | 0.9 | 1.7 | 0.00 | 0.00 | 0.00 | 72 | 1012.5 |
| 20260906045937 | 73 | 260 | 1.7 | 1.7 | 0.00 | 0.00 | 0.00 | 73 | 1012.5 |
| 20260906045437 | 73 | 260 | 1.7 | 2.6 | 0.00 | 0.00 | 0.00 | 72 | 1012.5 |
| 20260906044917 | 73 | 260 | 2.6 | 3.5 | 0.00 | 0.00 | 0.00 | 72 | 1012.5 |
| 20260906044417 | 73 | 283 | 2.6 | 3.5 | 0.00 | 0.00 | 0.00 | 71 | 1012.5 |
| 20260906043937 | 73 | 283 | 0.9 | 0.9 | 0.00 | 0.00 | 0.00 | 70 | 1012.5 |
| 20260906043417 | 73 | 260 | 1.7 | 2.6 | 0.00 | 0.00 | 0.00 | 70 | 1012.4 |
| 20260906042917 | 73 | 260 | 1.7 | 1.7 | 0.00 | 0.00 | 0.00 | 69 | 1012.4 |
| 20260906042417 | 74 | 283 | 2.6 | 4.3 | 0.00 | 0.00 | 0.00 | 69 | 1012.4 |
| 20260906041917 | 74 | 283 | 2.6 | 4.3 | 0.00 | 0.00 | 0.00 | 69 | 1012.4 |
| 20260906041417 | 74 | 260 | 2.6 | 4.3 | 0.00 | 0.00 | 0.00 | 68 | 1012.3 |
| 20260906040937 | 74 | 283 | 2.6 | 3.5 | 0.00 | 0.00 | 0.00 | 68 | 1012.3 |
| 20260906040417 | 74 | 283 | 3.5 | 6.1 | 0.00 | 0.00 | 0.00 | 68 | 1012.2 |
| 20260906035937 | 74 | 283 | 2.6 | 4.3 | 0.00 | 0.00 | 0.00 | 69 | 1012.2 |
| 20260906035417 | 74 | 305 | 2.6 | 4.3 | 0.00 | 0.00 | 0.00 | 68 | 1012.2 |
| 20260906034917 | 74 | 305 | 2.6 | 3.5 | 0.00 | 0.00 | 0.00 | 67 | 1012.2 |
| 20260906034417 | 74 | 283 | 1.7 | 3.5 | 0.00 | 0.00 | 0.00 | 67 | 1012.1 |
| 20260906033917 | 74 | 305 | 2.6 | 3.5 | 0.00 | 0.00 | 0.00 | 67 | 1012.1 |
| 20260906033457 | 74 | 283 | 1.7 | 3.5 | 0.00 | 0.00 | 0.00 | 66 | 1012.0 |
| 20260906032917 | 74 | 260 | 2.6 | 4.3 | 0.00 | 0.00 | 0.00 | 66 | 1011.9 |
| 20260906032417 | 74 | 283 | 0.9 | 1.7 | 0.00 | 0.00 | 0.00 | 67 | 1011.8 |
| 20260906031917 | 74 | 283 | 2.6 | 3.5 | 0.00 | 0.00 | 0.00 | 68 | 1011.8 |
| 20260906031417 | 74 | 283 | 2.6 | 3.5 | 0.00 | 0.00 | 0.00 | 69 | 1011.8 |
| 20260906030917 | 74 | 283 | 2.6 | 3.5 | 0.00 | 0.00 | 0.00 | 72 | 1011.7 |
| 20260906030417 | 74 | 283 | 2.6 | 5.2 | 0.00 | 0.00 | 0.00 | 72 | 1011.7 |
| 20260906025937 | 75 | 283 | 3.5 | 5.2 | 0.00 | 0.00 | 0.00 | 74 | 1011.7 |
| 20260906025416 | 75 | 283 | 1.7 | 3.5 | 0.00 | 0.00 | 0.00 | 74 | 1011.6 |
| 20260906024917 | 75 | 283 | 1.7 | 2.6 | 0.00 | 0.00 | 0.00 | 74 | 1011.6 |
| 20260906024417 | 75 | 283 | 1.7 | 2.6 | 0.00 | 0.00 | 0.00 | 73 | 1011.5 |
| 20260906023916 | 75 | 283 | 2.6 | 4.3 | 0.00 | 0.00 | 0.00 | 73 | 1011.6 |
| 20260906023416 | 75 | 305 | 1.7 | 3.5 | 0.00 | 0.00 | 0.00 | 72 | 1011.6 |
| 20260906022917 | 75 | 283 | 1.7 | 3.5 | 0.00 | 0.00 | 0.00 | 72 | 1011.7 |
| 20260906022417 | 76 | 260 | 4.3 | 7.8 | 0.00 | 0.00 | 0.00 | 72 | 1011.6 |
| 20260906021916 | 76 | 283 | 3.5 | 6.1 | 0.00 | 0.00 | 0.00 | 72 | 1011.6 |
| 20260906021416 | 76 | 283 | 2.6 | 4.3 | 0.00 | 0.00 | 0.00 | 71 | 1011.6 |
| 20260906020916 | 76 | 260 | 4.3 | 7.0 | 0.00 | 0.00 | 0.00 | 70 | 1011.7 |
| 20260906020417 | 77 | 283 | 1.7 | 3.5 | 0.00 | 0.00 | 0.00 | 70 | 1011.7 |
| 20260906015917 | 77 | 283 | 3.5 | 6.1 | 0.00 | 0.00 | 0.00 | 69 | 1011.7 |
| 20260906015416 | 77 | 283 | 4.3 | 7.8 | 0.00 | 0.00 | 0.00 | 68 | 1011.7 |
| 20260906014916 | 77 | 283 | 2.6 | 4.3 | 0.00 | 0.00 | 0.00 | 67 | 1011.6 |
| 20260906014417 | 78 | 260 | 4.3 | 6.1 | 0.00 | 0.00 | 0.00 | 66 | 1011.7 |
| 20260906013936 | 78 | 283 | 1.7 | 3.5 | 0.00 | 0.00 | 0.00 | 65 | 1011.6 |
| 20260906013416 | 78 | 283 | 3.5 | 5.2 | 0.00 | 0.00 | 0.00 | 65 | 1011.6 |
| 20260906012916 | 78 | 283 | 4.3 | 7.0 | 0.00 | 0.00 | 0.00 | 65 | 1011.6 |
| 20260906012416 | 79 | 260 | 3.5 | 7.0 | 0.00 | 0.00 | 0.00 | 65 | 1011.6 |
| 20260906011916 | 79 | 305 | 5.2 | 8.7 | 0.00 | 0.00 | 0.00 | 63 | 1011.5 |
| 20260906011416 | 79 | 260 | 4.3 | 7.0 | 0.00 | 0.00 | 0.00 | 63 | 1011.4 |
| 20260906010917 | 79 | 260 | 4.3 | 7.0 | 0.00 | 0.00 | 0.00 | 63 | 1011.4 |
| 20260906010416 | 79 | 283 | 4.3 | 6.1 | 0.00 | 0.00 | 0.00 | 62 | 1011.4 |
| 20260906005917 | 79 | 283 | 7.0 | 8.7 | 0.00 | 0.00 | 0.00 | 60 | 1011.4 |
| 20260906005416 | 80 | 260 | 5.2 | 7.0 | 0.00 | 0.00 | 0.00 | 60 | 1011.5 |
| 20260906004916 | 80 | 283 | 5.2 | 7.0 | 0.00 | 0.00 | 0.00 | 58 | 1011.5 |
| 20260906004417 | 81 | 283 | 4.3 | 6.1 | 0.00 | 0.00 | 0.00 | 57 | 1011.5 |
| 20260906003916 | 82 | 283 | 4.3 | 7.0 | 0.00 | 0.00 | 0.00 | 55 | 1011.4 |
| 20260906003416 | 81 | 283 | 5.2 | 7.8 | 0.00 | 0.00 | 0.00 | 56 | 1011.4 |
| 20260906002917 | 82 | 283 | 4.3 | 7.0 | 0.00 | 0.00 | 0.00 | 55 | 1011.4 |
| 20260906002417 | 82 | 305 | 3.5 | 6.1 | 0.00 | 0.00 | 0.00 | 55 | 1011.3 |
| 20260906001917 | 83 | 283 | 5.2 | 7.8 | 0.00 | 0.00 | 0.00 | 53 | 1011.4 |
| 20260906001436 | 83 | 260 | 2.6 | 5.2 | 0.00 | 0.00 | 0.00 | 53 | 1011.3 |
| 20260906000917 | 84 | 283 | 5.2 | 6.1 | 0.00 | 0.00 | 0.00 | 52 | 1011.3 |
| 20260906000418 | 85 | 283 | 2.6 | 4.3 | 0.00 | 0.00 | 0.00 | 50 | 1011.3 |
| 20260905235916 | 85 | 283 | 3.5 | 5.2 | 0.00 | 0.00 | 0.00 | 49 | 1011.2 |
| 20260905235416 | 85 | 283 | 5.2 | 7.8 | 0.00 | 0.00 | 0.00 | 48 | 1011.2 |
| 20260905234917 | 86 | 283 | 6.1 | 10.4 | 0.00 | 0.00 | 0.00 | 47 | 1011.3 |
| 20260905234416 | 87 | 260 | 6.1 | 8.7 | 0.00 | 0.00 | 0.00 | 47 | 1011.3 |
| 20260905233936 | 88 | 283 | 6.1 | 9.6 | 0.00 | 0.00 | 0.00 | 45 | 1011.2 |
| 20260905233416 | 88 | 283 | 5.2 | 7.8 | 0.00 | 0.00 | 0.00 | 42 | 1011.2 |
| 20260905232916 | 88 | 305 | 1.7 | 5.2 | 0.00 | 0.00 | 0.00 | 41 | 1011.2 |
| 20260905232416 | 88 | 238 | 4.3 | 8.7 | 0.00 | 0.00 | 0.00 | 42 | 1011.2 |
| 20260905231916 | 89 | 0.0 | 0.0 | 0.00 | 0.00 | 0.00 | 40 | 1011.2 | |
| 20260905231416 | 90 | 0.0 | 0.0 | 0.00 | 0.00 | 0.00 | 26 | 1011.2 | |
| 20260905230916 | 91 | 0.0 | 0.0 | 0.00 | 0.00 | 0.00 | 26 | 1011.2 | |
| 20260905230416 | 91 | 0.0 | 0.0 | 0.00 | 0.00 | 0.00 | 23 | 1011.2 | |
| 20260905225916 | 91 | 0.0 | 0.9 | 0.00 | 0.00 | 0.00 | 21 | 1011.3 | |
| 20260905225416 | 91 | 0.0 | 1.7 | 0.00 | 0.00 | 0.00 | 21 | 1011.4 | |
| 20260905224916 | 91 | 0.0 | 0.0 | 0.00 | 0.00 | 0.00 | 22 | 1011.4 | |
| 20260905224417 | 91 | 0.0 | 0.0 | 0.00 | 0.00 | 0.00 | 21 | 1011.5 | |
| 20260905223916 | 92 | 215 | 0.9 | 3.5 | 0.00 | 0.00 | 0.00 | 22 | 1011.5 |
| 20260905223416 | 92 | 148 | 1.7 | 3.5 | 0.00 | 0.00 | 0.00 | 21 | 1011.6 |
| 20260905222916 | 91 | 283 | 3.5 | 4.3 | 0.00 | 0.00 | 0.00 | 21 | 1011.6 |
| 20260905222436 | 91 | 170 | 1.7 | 2.6 | 0.00 | 0.00 | 0.00 | 21 | 1011.7 |
| 20260905221917 | 91 | 148 | 2.6 | 3.5 | 0.00 | 0.00 | 0.00 | 21 | 1011.7 |
| 20260905221416 | 91 | 170 | 1.7 | 4.3 | 0.00 | 0.00 | 0.00 | 22 | 1011.7 |
| 20260905220916 | 91 | 148 | 2.6 | 5.2 | 0.00 | 0.00 | 0.00 | 22 | 1011.8 |
| 20260905220416 | 90 | 0.0 | 0.9 | 0.00 | 0.00 | 0.00 | 21 | 1011.9 | |
| 20260905215957 | 90 | 148 | 4.3 | 5.2 | 0.00 | 0.00 | 0.00 | 22 | 1011.9 |
| 20260905215416 | 90 | 148 | 0.9 | 2.6 | 0.00 | 0.00 | 0.00 | 23 | 1012.0 |
| 20260905214916 | 90 | 215 | 0.9 | 1.7 | 0.00 | 0.00 | 0.00 | 24 | 1012.1 |
| 20260905214416 | 90 | 215 | 2.6 | 4.3 | 0.00 | 0.00 | 0.00 | 24 | 1012.2 |
| 20260905213916 | 90 | 125 | 2.6 | 3.5 | 0.00 | 0.00 | 0.00 | 25 | 1012.1 |
| 20260905213416 | 90 | 283 | 2.6 | 4.3 | 0.00 | 0.00 | 0.00 | 26 | 1012.2 |
| 20260905212916 | 90 | 125 | 2.6 | 6.1 | 0.00 | 0.00 | 0.00 | 26 | 1012.2 |
| 20260905212416 | 91 | 148 | 1.7 | 3.5 | 0.00 | 0.00 | 0.00 | 25 | 1012.2 |
| 20260905211916 | 90 | 170 | 0.9 | 3.5 | 0.00 | 0.00 | 0.00 | 27 | 1012.3 |
| 20260905211416 | 90 | 148 | 0.9 | 3.5 | 0.00 | 0.00 | 0.00 | 26 | 1012.3 |
| 20260905210916 | 89 | 148 | 1.7 | 3.5 | 0.00 | 0.00 | 0.00 | 27 | 1012.4 |
| 20260905210456 | 89 | 215 | 2.6 | 5.2 | 0.00 | 0.00 | 0.00 | 27 | 1012.4 |
| 20260905205916 | 90 | 35 | 0.9 | 1.7 | 0.00 | 0.00 | 0.00 | 27 | 1012.4 |
| 20260905205416 | 90 | 238 | 2.6 | 5.2 | 0.00 | 0.00 | 0.00 | 27 | 1012.5 |
| 20260905204916 | 90 | 305 | 1.7 | 2.6 | 0.00 | 0.00 | 0.00 | 27 | 1012.5 |
| 20260905204416 | 90 | 148 | 3.5 | 4.3 | 0.00 | 0.00 | 0.00 | 29 | 1012.5 |
| 20260905203916 | 90 | 283 | 1.7 | 5.2 | 0.00 | 0.00 | 0.00 | 28 | 1012.6 |
| 20260905203416 | 90 | 238 | 1.7 | 5.2 | 0.00 | 0.00 | 0.00 | 30 | 1012.7 |
| 20260905202916 | 89 | 148 | 1.7 | 3.5 | 0.00 | 0.00 | 0.00 | 30 | 1012.7 |
| 20260905202416 | 88 | 148 | 1.7 | 3.5 | 0.00 | 0.00 | 0.00 | 31 | 1012.7 |
| 20260905201916 | 88 | 0.0 | 1.7 | 0.00 | 0.00 | 0.00 | 33 | 1012.7 | |
| 20260905201416 | 88 | 193 | 0.9 | 1.7 | 0.00 | 0.00 | 0.00 | 34 | 1012.8 |
| 20260905200916 | 88 | 238 | 0.9 | 1.7 | 0.00 | 0.00 | 0.00 | 34 | 1012.9 |
| 20260905200416 | 88 | 148 | 0.9 | 1.7 | 0.00 | 0.00 | 0.00 | 36 | 1012.9 |
| 20260905195936 | 88 | 215 | 0.9 | 2.6 | 0.00 | 0.00 | 0.00 | 37 | 1012.9 |
| 20260905195416 | 87 | 148 | 0.9 | 3.5 | 0.00 | 0.00 | 0.00 | 39 | 1013.0 |
| 20260905194916 | 87 | 170 | 1.7 | 3.5 | 0.00 | 0.00 | 0.00 | 39 | 1013.1 |
| 20260905194416 | 87 | 0.0 | 1.7 | 0.00 | 0.00 | 0.00 | 40 | 1013.3 | |
| 20260905193916 | 88 | 148 | 2.6 | 5.2 | 0.00 | 0.00 | 0.00 | 39 | 1013.3 |
| 20260905193416 | 87 | 283 | 0.9 | 2.6 | 0.00 | 0.00 | 0.00 | 37 | 1013.2 |
| 20260905192916 | 87 | 283 | 3.5 | 7.8 | 0.00 | 0.00 | 0.00 | 36 | 1013.2 |
| 20260905192416 | 87 | 283 | 1.7 | 4.3 | 0.00 | 0.00 | 0.00 | 37 | 1013.4 |
| 20260905191936 | 87 | 260 | 1.7 | 3.5 | 0.00 | 0.00 | 0.00 | 36 | 1013.5 |
| 20260905191436 | 87 | 0.0 | 1.7 | 0.00 | 0.00 | 0.00 | 37 | 1013.5 | |
| 20260905190916 | 86 | 0.0 | 0.9 | 0.00 | 0.00 | 0.00 | 37 | 1013.6 | |
| 20260905190416 | 86 | 0.0 | 0.0 | 0.00 | 0.00 | 0.00 | 37 | 1013.6 | |
| 20260905185916 | 86 | 125 | 0.9 | 2.6 | 0.00 | 0.00 | 0.00 | 35 | 1013.7 |
| 20260905185416 | 85 | 125 | 1.7 | 3.5 | 0.00 | 0.00 | 0.00 | 34 | 1013.7 |
| 20260905184916 | 85 | 0.0 | 1.7 | 0.00 | 0.00 | 0.00 | 34 | 1013.7 | |
| 20260905184436 | 85 | 148 | 3.5 | 4.3 | 0.00 | 0.00 | 0.00 | 33 | 1013.9 |
| 20260905183916 | 85 | 103 | 1.7 | 2.6 | 0.00 | 0.00 | 0.00 | 31 | 1013.9 |
| 20260905183416 | 84 | 0.0 | 0.0 | 0.00 | 0.00 | 0.00 | 38 | 1014.0 | |
| 20260905182936 | 83 | 0.0 | 1.7 | 0.00 | 0.00 | 0.00 | 38 | 1014.0 | |
| 20260905182416 | 84 | 58 | 2.6 | 3.5 | 0.00 | 0.00 | 0.00 | 40 | 1014.1 |
| 20260905181916 | 83 | 125 | 0.9 | 1.7 | 0.00 | 0.00 | 0.00 | 42 | 1014.1 |
| 20260905181416 | 83 | 148 | 0.9 | 2.6 | 0.00 | 0.00 | 0.00 | 44 | 1014.1 |